Waarnemingen

Advertentie
Mijn weer
Eindhoven, Nederland (6370): temperatuur & dauwpunt: 12.12.2017 13:00:00 - 18.12.2017 13:00:00 (CET)Eindhoven, Nederland (6370): temperatuur 5cm: 12.12.2017 13:00:00 - 18.12.2017 13:00:00 (CET)Eindhoven, Nederland (6370): windsnelheid & windstoten: 12.12.2017 13:00:00 - 18.12.2017 13:00:00 (CET)Eindhoven, Nederland (6370): windrichting: 12.12.2017 13:00:00 - 18.12.2017 13:00:00 (CET)Eindhoven, Nederland (6370): luchtdruk: 12.12.2017 13:00:00 - 18.12.2017 13:00:00 (CET)Eindhoven, Nederland (6370): zicht: 12.12.2017 13:00:00 - 18.12.2017 13:00:00 (CET)Eindhoven, Nederland (6370): neerslag: 12.12.2017 13:00:00 - 18.12.2017 13:00:00 (CET)
Datum & Tijd tt [°C] td [°C] tt 5cm [°C] ff [km/u] ff [kn] fx [km/u] fx [kn] dd ppp [hPa] vv [km] rr [mm]
18.12.2017 13:00:00 7,6 4,7 7,5 16 9 32 18 NNW 1023,9 9 0,0
18.12.2017 12:00:00 7,7 5,1 7,7 18 10 32 18 NNW 1023,5 10 0,0
18.12.2017 11:00:00 7,2 4,8 7,0 15 8 40 21 NNW 1023,0 10 0,0
18.12.2017 10:00:00 6,7 5,0 6,4 15 8 29 16 NNW 1021,9 9 0,0
18.12.2017 09:00:00 6,5 5,1 6,2 16 9 29 16 NNW 1020,8 9 0,0
18.12.2017 08:00:00 6,6 5,2 6,3 18 10 25 14 NNW 1019,5 9 0,0
18.12.2017 07:00:00 6,5 5,5 6,2 16 9 32 18 NW 1018,3 8 0,1
18.12.2017 06:00:00 6,7 5,6 6,4 16 9 29 16 NW 1017,5 9 0,2
18.12.2017 05:00:00 6,3 5,8 5,9 13 7 22 12 NW 1016,8 5 0,4
18.12.2017 04:00:00 4,7 4,4 4,3 15 8 29 16 ZW 1016,3 4,6 0,5
18.12.2017 03:00:00 3,8 3,3 3,6 18 10 29 16 ZZW 1016,2 8 0,2
18.12.2017 02:00:00 3,1 2,6 2,9 21 11 36 19 ZZW 1016,5 3,2 0,3
18.12.2017 01:00:00 2,7 2,0 2,6 24 13 40 21 ZZW 1017,0 2,8 1,8
18.12.2017 00:00:00 2,5 1,7 2,3 28 15 43 23 Z 1018,0 3,1 1,3
17.12.2017 23:00:00 2,3 1,6 2,2 26 14 40 21 Z 1019,1 3,5 0,6
17.12.2017 22:00:00 2,6 1,4 2,5 21 11 36 19 ZZW 1020,8 8 0,2
17.12.2017 21:00:00 3,1 1,1 2,9 22 12 36 19 ZZW 1021,5 10 0,0
17.12.2017 20:00:00 3,3 1,5 3,0 22 12 32 18 ZZW 1022,2 10 0,0
17.12.2017 19:00:00 3,2 2,2 2,9 16 9 - - ZZW 1023,0 8 0,0
17.12.2017 18:00:00 3,3 2,4 2,8 11 6 18 10 ZZW 1023,2 8 0,0
17.12.2017 17:00:00 3,2 2,5 2,6 11 6 14 8 Z 1023,7 8 0,0
17.12.2017 16:00:00 3,8 2,8 3,2 9 5 14 8 ZZW 1023,8 8 0,0
17.12.2017 15:00:00 4,5 3,2 4,3 11 6 18 10 ZZW 1023,8 10 0,0
17.12.2017 14:00:00 4,8 3,4 5,1 11 6 18 10 WZW 1023,6 9 0,0
17.12.2017 13:00:00 2,5 2,3 2,6 9 5 14 8 ZW 1023,7 4,1 0,0
17.12.2017 12:00:00 0,9 0,5 1,2 11 6 14 8 ZW 1024,0 0,5 0,0
17.12.2017 11:00:00 0,3 -0,1 0,3 9 5 14 8 ZZW 1024,0 0,3 0,0
17.12.2017 10:00:00 0,1 -0,2 -0,5 9 5 18 10 ZW 1023,4 3,1 0,0
17.12.2017 09:00:00 -1,5 -1,9 -2,4 11 6 14 8 WZW 1022,9 2,0 0,0
17.12.2017 08:00:00 -0,8 -1,3 -1,8 9 5 14 8 WZW 1022,2 4,7 0,0
17.12.2017 07:00:00 -1,4 -1,8 -2,5 9 5 11 6 ZW 1021,5 3,8 0,0
17.12.2017 06:00:00 0,0 -0,4 -0,4 9 5 14 8 ZW 1021,1 6 0,0
17.12.2017 05:00:00 1,0 0,5 0,4 11 6 18 10 WZW 1020,6 8 0,1
17.12.2017 04:00:00 1,2 0,7 0,6 11 6 25 14 WZW 1020,3 8 0,0
17.12.2017 03:00:00 1,2 0,5 0,7 16 9 22 12 WZW 1019,8 10 0,0
17.12.2017 02:00:00 1,8 1,4 1,7 18 10 25 14 WZW 1019,3 9 0,5
17.12.2017 01:00:00 1,9 1,3 1,2 11 6 18 10 WZW 1019,0 10 0,0
17.12.2017 00:00:00 2,4 1,7 2,2 15 8 22 12 WZW 1018,7 10 0,0
16.12.2017 23:00:00 2,5 1,4 2,0 13 7 22 12 WZW 1018,2 10 0,0
16.12.2017 22:00:00 2,7 1,6 2,2 13 7 22 12 W 1017,8 10 0,0
16.12.2017 21:00:00 2,4 1,6 1,7 11 6 22 12 WZW 1017,4 10 0,2
16.12.2017 20:00:00 2,3 1,6 2,1 11 6 32 18 WZW 1017,0 4,7 0,7
16.12.2017 19:00:00 2,5 1,4 2,2 16 9 25 14 W 1016,4 10 0,3
16.12.2017 18:00:00 2,8 1,4 2,4 15 8 25 14 W 1015,4 10 0,4
16.12.2017 17:00:00 2,9 1,4 2,4 15 8 32 18 W 1015,0 10 0,0
16.12.2017 16:00:00 3,7 2,0 3,1 15 8 32 18 W 1014,1 10 0,4
16.12.2017 15:00:00 3,9 2,2 3,7 9 5 18 10 W 1013,2 10 0,8
16.12.2017 14:00:00 5,1 2,5 4,5 11 6 29 16 W 1012,9 10 0,0
16.12.2017 13:00:00 4,9 2,8 5,2 13 7 22 12 W 1012,7 10 0,0
16.12.2017 12:00:00 4,4 2,0 4,6 13 7 25 14 W 1012,3 10 0,0
16.12.2017 11:00:00 3,1 1,3 2,9 13 7 18 10 W 1012,0 10 0,0
16.12.2017 10:00:00 1,6 0,5 0,8 9 5 14 8 WZW 1011,0 10 0,0
16.12.2017 09:00:00 0,4 -0,4 -1,4 8 4 14 8 W 1010,1 10 0,0
16.12.2017 08:00:00 0,3 -0,4 -1,2 8 4 14 8 W 1009,1 8 0,0
16.12.2017 07:00:00 0,3 -0,2 -1,5 8 4 14 8 W 1008,2 5 0,0
16.12.2017 06:00:00 1,3 0,7 0,2 9 5 14 8 W 1007,6 4,6 0,0
16.12.2017 05:00:00 1,1 0,6 -0,3 8 4 11 6 W 1006,8 3,0 0,0
16.12.2017 04:00:00 2,3 1,8 2,0 9 5 14 8 W 1006,2 3,9 0,0
16.12.2017 03:00:00 1,4 1,1 -1,0 9 5 11 6 W 1005,6 1,8 0,0
16.12.2017 02:00:00 1,3 0,5 -0,1 5 3 14 8 WNW 1004,7 3,3 0,0
16.12.2017 01:00:00 2,3 1,5 1,2 5 3 11 6 W 1004,2 7 0,0
16.12.2017 00:00:00 3,4 2,4 3,1 5 3 11 6 WNW 1003,6 8 0,0
15.12.2017 23:00:00 3,2 2,4 2,9 2 1 7 4 - 1002,7 9 0,0
15.12.2017 22:00:00 3,4 2,3 3,1 2 1 11 6 WNW 1002,1 10 0,0
15.12.2017 21:00:00 3,4 2,3 3,0 2 1 11 6 - 1001,3 10 0,0
15.12.2017 20:00:00 3,7 2,2 3,0 5 3 11 6 N 1000,3 10 0,0
15.12.2017 19:00:00 2,9 1,8 2,2 2 1 7 4 - 999,2 10 0,0
15.12.2017 18:00:00 3,1 1,6 0,9 8 4 11 6 ZZO 998,1 10 0,0
15.12.2017 17:00:00 4,1 2,1 3,8 8 4 14 8 ZZO 997,5 10 0,0
15.12.2017 16:00:00 4,4 2,0 4,2 9 5 18 10 Z 996,8 10 0,0
15.12.2017 15:00:00 4,7 1,9 4,6 11 6 18 10 Z 996,0 10 0,0
15.12.2017 14:00:00 4,7 1,7 4,7 15 8 22 12 ZZW 995,6 10 0,0
15.12.2017 13:00:00 4,4 1,7 4,5 11 6 22 12 ZZW 995,4 10 0,0
15.12.2017 12:00:00 4,2 1,8 4,2 11 6 25 14 Z 995,0 10 0,0
15.12.2017 11:00:00 4,1 1,9 4,0 15 8 25 14 ZZW 994,5 10 0,0
15.12.2017 10:00:00 3,8 2,2 3,6 13 7 18 10 Z 993,6 10 0,0
15.12.2017 09:00:00 3,4 2,0 3,2 11 6 22 12 Z 993,1 10 0,0
15.12.2017 08:00:00 3,2 1,8 3,0 13 7 22 12 ZZW 992,7 10 0,0
15.12.2017 07:00:00 3,0 1,8 2,8 13 7 22 12 Z 992,3 10 0,0
15.12.2017 06:00:00 2,8 1,5 2,6 15 8 29 16 ZZW 992,2 10 0,0
15.12.2017 05:00:00 2,3 1,1 1,6 15 8 25 14 Z 991,9 10 0,0
15.12.2017 04:00:00 1,7 0,6 1,1 16 9 29 16 ZZW 991,5 10 0,0
15.12.2017 03:00:00 2,4 1,1 2,1 15 8 29 16 ZZW 991,2 10 0,0
15.12.2017 02:00:00 1,6 0,7 1,0 13 7 29 16 ZW 990,5 10 0,0
15.12.2017 01:00:00 2,2 1,0 1,9 15 8 25 14 ZW 990,2 10 0,0
15.12.2017 00:00:00 2,0 0,9 1,7 18 10 25 14 WZW 990,1 10 0,0
14.12.2017 23:00:00 1,3 0,5 0,0 11 6 22 12 ZW 989,8 10 0,0
14.12.2017 22:00:00 1,6 0,5 1,0 13 7 22 12 ZZW 989,9 10 0,0
14.12.2017 21:00:00 2,4 1,2 1,5 13 7 25 14 ZZW 990,0 10 0,0
14.12.2017 20:00:00 3,5 1,6 3,0 18 10 29 16 ZZW 990,2 10 0,0
14.12.2017 19:00:00 3,8 1,7 3,4 21 11 29 16 ZZW 990,5 10 0,0
14.12.2017 18:00:00 3,5 1,3 3,0 18 10 29 16 ZZW 991,0 10 0,0
14.12.2017 17:00:00 4,0 1,4 3,3 21 11 40 21 ZZW 991,3 10 0,0
14.12.2017 16:00:00 4,7 1,9 4,5 28 15 40 21 ZW 992,1 10 0,0
14.12.2017 15:00:00 4,9 2,1 4,8 28 15 50 27 ZZW 992,0 10 0,0
14.12.2017 14:00:00 5,2 2,2 4,8 34 18 47 25 ZW 992,3 10 0,0
14.12.2017 13:00:00 5,1 2,4 5,0 31 17 58 31 ZW 992,7 10 0,0
14.12.2017 12:00:00 4,9 2,5 4,7 34 18 50 27 ZW 993,0 10 0,0
14.12.2017 11:00:00 4,9 2,4 4,7 31 17 47 25 ZW 993,2 10 0,0
14.12.2017 10:00:00 4,3 1,7 4,0 26 14 43 23 ZZW 992,7 10 0,0
14.12.2017 09:00:00 3,6 1,5 3,0 31 17 43 23 ZW 992,6 10 0,0
14.12.2017 08:00:00 3,4 1,9 3,1 24 13 47 25 WZW 992,8 9 0,3
14.12.2017 07:00:00 3,9 1,0 3,3 31 17 47 25 WZW 992,2 10 0,1
14.12.2017 06:00:00 3,7 1,8 3,2 28 15 54 29 W 990,9 10 0,3
14.12.2017 05:00:00 2,8 1,6 2,1 29 16 47 25 ZW 989,2 4,8 0,4
14.12.2017 04:00:00 1,5 0,9 1,1 22 12 36 19 ZZW 988,8 7 1,6
14.12.2017 03:00:00 3,7 1,9 3,5 29 16 43 23 ZW 988,7 10 0,0
14.12.2017 02:00:00 4,2 2,0 3,8 21 11 29 16 ZZW 988,8 10 0,0
14.12.2017 01:00:00 4,2 2,0 3,7 21 11 32 18 WZW 989,2 10 0,0
14.12.2017 00:00:00 4,7 2,3 4,1 24 13 43 23 WZW 989,3 10 0,0
13.12.2017 23:00:00 5,7 3,1 5,0 29 16 47 25 W 989,0 10 0,0
13.12.2017 22:00:00 6,5 5,0 6,1 22 12 61 33 ZW 987,7 10 2,1
13.12.2017 21:00:00 7,2 6,4 6,9 22 12 36 19 ZW 987,7 10 0,9
13.12.2017 20:00:00 6,4 5,7 6,2 26 14 43 23 ZZW 988,9 9 2,4
13.12.2017 19:00:00 5,9 5,1 5,6 22 12 36 19 Z 990,9 10 0,8
13.12.2017 18:00:00 5,3 4,6 5,1 21 11 32 18 Z 993,3 10 0,5
13.12.2017 17:00:00 5,3 4,5 5,1 18 10 32 18 Z 995,3 10 0,7
13.12.2017 16:00:00 5,4 4,7 5,3 18 10 32 18 Z 996,8 10 0,4
13.12.2017 15:00:00 5,7 4,7 5,6 26 14 43 23 ZZW 997,5 10 0,1
13.12.2017 14:00:00 5,5 4,3 - 31 17 43 23 ZW 997,9 10 0,2
13.12.2017 13:00:00 4,7 3,9 - 31 17 47 25 ZZW 998,6 3,3 0,3
13.12.2017 12:00:00 4,2 3,1 3,8 28 15 54 29 ZZW 999,6 4,2 0,5
13.12.2017 11:00:00 3,8 2,8 3,4 29 16 54 29 Z 1001,1 6 0,2
13.12.2017 10:00:00 3,7 2,5 3,2 28 15 50 27 Z 1002,1 9 0,6
13.12.2017 09:00:00 3,9 1,9 3,1 26 14 47 25 Z 1003,2 10 0,1
13.12.2017 08:00:00 3,5 1,6 2,7 24 13 47 25 Z 1004,7 10 0,1
13.12.2017 07:00:00 3,3 0,8 2,5 24 13 36 19 Z 1006,0 10 0,0
13.12.2017 06:00:00 2,8 0,7 2,0 21 11 40 21 Z 1007,1 10 0,0
13.12.2017 05:00:00 2,2 0,2 1,5 22 12 36 19 Z 1008,4 10 0,0
13.12.2017 04:00:00 1,9 -0,2 1,4 24 13 32 18 Z 1009,7 10 0,0
13.12.2017 03:00:00 1,7 -0,3 1,1 18 10 29 16 Z 1010,8 10 0,0
13.12.2017 02:00:00 0,8 -0,5 0,1 16 9 25 14 Z 1011,3 10 0,0
13.12.2017 01:00:00 0,4 -0,6 -0,3 13 7 22 12 Z 1012,4 9 0,0
13.12.2017 00:00:00 0,5 -0,6 -0,3 13 7 22 12 Z 1013,0 9 0,0
12.12.2017 23:00:00 0,5 -0,4 -0,1 13 7 22 12 Z 1013,3 6 0,0
12.12.2017 22:00:00 0,7 -0,2 0,1 15 8 22 12 Z 1013,2 5 0,0
12.12.2017 21:00:00 1,1 0,2 0,6 15 8 22 12 Z 1013,3 5 0,0
12.12.2017 20:00:00 1,6 0,5 1,2 11 6 22 12 Z 1013,0 7 0,0
12.12.2017 19:00:00 1,7 0,6 1,2 15 8 22 12 ZZW 1012,8 5 0,0
12.12.2017 18:00:00 1,3 0,4 1,0 13 7 25 14 ZZW 1012,2 4,5 0,0
12.12.2017 17:00:00 1,3 0,4 1,0 13 7 22 12 ZW 1011,9 7 0,0
12.12.2017 16:00:00 1,3 0,3 1,1 18 10 36 19 WZW 1010,8 8 0,0
12.12.2017 15:00:00 1,6 0,5 1,3 22 12 36 19 ZW 1009,4 10 0,0
12.12.2017 14:00:00 1,7 0,5 1,4 21 11 29 16 ZW 1009,1 10 0,0
12.12.2017 13:00:00 1,6 0,5 1,3 18 10 25 14 WZW 1008,4 6 0,0

tt = temperatuur
td = dauwpunt
tt 5cm = temperatuur 5cm
ff = windsnelheid
fx = windstoten
dd = windrichting
ppp = luchtdruk
vv = zicht
rr = neerslag

Weerstations in de omgeving